Hourly Weather Dzierzgowek

Today, 16 May, Sunday

Time Temperature Precipitation Wind Pressure Humidity
00:00 +12°C° 0 mm 3 mps 746 mmHg 79%
01:00 +12°C° 0 mm 3 mps 746 mmHg 77%
02:00 +12°C° 0.1 mm 3 mps 745 mmHg 80%
03:00 +12°C° 0.1 mm 3 mps 745 mmHg 82%
04:00 +12°C° 0.1 mm 3 mps 745 mmHg 85%
05:00 +12°C° 0.1 mm 3 mps 745 mmHg 84%
06:00 +13°C° 0.1 mm 3 mps 745 mmHg 83%
07:00 +14°C° 0 mm 3 mps 745 mmHg 82%
08:00 +14°C° 0.4 mm 3 mps 745 mmHg 80%
09:00 +16°C° 0.4 mm 3 mps 745 mmHg 77%
10:00 +16°C° 0.4 mm 3 mps 745 mmHg 74%
11:00 +17°C° 0.3 mm 4 mps 744 mmHg 73%
12:00 +16°C° 0.3 mm 5 mps 744 mmHg 72%
13:00 +17°C° 0.3 mm 6 mps 744 mmHg 71%
14:00 +16°C° 0.5 mm 5 mps 744 mmHg 75%
15:00 +15°C° 0.5 mm 4 mps 744 mmHg 80%
16:00 +14°C° 0.5 mm 4 mps 744 mmHg 85%
17:00 +14°C° 0.2 mm 3 mps 744 mmHg 86%
18:00 +13°C° 0.2 mm 3 mps 744 mmHg 87%
19:00 +14°C° 0.2 mm 2 mps 744 mmHg 88%
20:00 +13°C° 0 mm 2 mps 744 mmHg 89%
21:00 +12°C° 0 mm 2 mps 744 mmHg 91%
22:00 +10°C° 0 mm 2 mps 745 mmHg 92%
23:00 +10°C° 0 mm 2 mps 745 mmHg 92%

Tomorrow, 17 May, Monday

Time Temperature Precipitation Wind Pressure Humidity
00:00 +10°C° 0 mm 3 mps 745 mmHg 91%
01:00 +9°C° 0 mm 3 mps 745 mmHg 91%
02:00 +9°C° 0 mm 2 mps 745 mmHg 90%
03:00 +9°C° 0 mm 2 mps 745 mmHg 90%
04:00 +8°C° 0 mm 2 mps 745 mmHg 89%
05:00 +10°C° 0 mm 2 mps 745 mmHg 85%
06:00 +13°C° 0 mm 2 mps 745 mmHg 80%
07:00 +13°C° 0 mm 3 mps 745 mmHg 76%
08:00 +16°C° 0 mm 3 mps 745 mmHg 70%
09:00 +17°C° 0 mm 3 mps 745 mmHg 65%
10:00 +19°C° 0 mm 3 mps 744 mmHg 59%
11:00 +19°C° 0 mm 3 mps 744 mmHg 57%
12:00 +20°C° 0 mm 3 mps 744 mmHg 55%
13:00 +20°C° 0 mm 3 mps 744 mmHg 52%
14:00 +19°C° 0.2 mm 4 mps 744 mmHg 63%
15:00 +17°C° 0.2 mm 4 mps 744 mmHg 73%
16:00 +14°C° 0.2 mm 5 mps 744 mmHg 83%
17:00 +13°C° 0.3 mm 5 mps 744 mmHg 87%
18:00 +12°C° 0.3 mm 5 mps 744 mmHg 90%
19:00 +11°C° 0.3 mm 4 mps 744 mmHg 94%
20:00 +11°C° 0.6 mm 4 mps 744 mmHg 94%
21:00 +11°C° 0.6 mm 4 mps 744 mmHg 95%
22:00 +11°C° 0.6 mm 4 mps 744 mmHg 96%
23:00 +10°C° 0.3 mm 4 mps 744 mmHg 96%

Day after tomorrow, 18 May, Tuesday

Time Temperature Precipitation Wind Pressure Humidity
00:00 +10°C° 0.3 mm 4 mps 744 mmHg 96%
01:00 +10°C° 0.3 mm 4 mps 744 mmHg 96%
02:00 +10°C° 0.2 mm 4 mps 744 mmHg 96%
03:00 +10°C° 0.2 mm 4 mps 744 mmHg 96%
04:00 +10°C° 0.2 mm 4 mps 744 mmHg 97%
05:00 +10°C° 0.1 mm 4 mps 744 mmHg 96%
06:00 +9°C° 0.1 mm 5 mps 745 mmHg 95%
07:00 +10°C° 0.1 mm 5 mps 745 mmHg 95%
08:00 +10°C° 0.1 mm 5 mps 745 mmHg 92%
09:00 +11°C° 0.1 mm 6 mps 745 mmHg 90%
10:00 +11°C° 0.1 mm 6 mps 746 mmHg 88%
11:00 +13°C° 0.3 mm 6 mps 746 mmHg 86%
12:00 +13°C° 0.3 mm 6 mps 746 mmHg 84%
13:00 +13°C° 0.3 mm 6 mps 747 mmHg 83%
14:00 +14°C° 0.2 mm 5 mps 747 mmHg 82%
15:00 +14°C° 0.2 mm 5 mps 747 mmHg 80%
16:00 +14°C° 0.2 mm 4 mps 747 mmHg 79%
17:00 +13°C° 0.4 mm 4 mps 747 mmHg 83%
18:00 +13°C° 0.4 mm 3 mps 748 mmHg 86%
19:00 +12°C° 0.4 mm 3 mps 748 mmHg 90%
20:00 +11°C° 0 mm 3 mps 748 mmHg 91%
21:00 +10°C° 0 mm 3 mps 748 mmHg 93%
22:00 +10°C° 0 mm 3 mps 748 mmHg 94%
23:00 +9°C° 0 mm 3 mps 748 mmHg 95%

19 May, Wednesday

Time Temperature Precipitation Wind Pressure Humidity
00:00 +9°C° 0 mm 3 mps 748 mmHg 95%
01:00 +8°C° 0 mm 3 mps 749 mmHg 95%
02:00 +8°C° 0 mm 3 mps 749 mmHg 96%
03:00 +8°C° 0 mm 3 mps 749 mmHg 96%
04:00 +7°C° 0 mm 3 mps 749 mmHg 96%
05:00 +14°C° 0 mm 4 mps 750 mmHg 72%
06:00 +13°C° 0 mm 4 mps 750 mmHg 78%
07:00 +11°C° 0 mm 4 mps 750 mmHg 84%
08:00 +13°C° 0.1 mm 4 mps 750 mmHg 79%
09:00 +14°C° 0.1 mm 4 mps 749 mmHg 73%
10:00 +15°C° 0.1 mm 4 mps 749 mmHg 67%
11:00 +14°C° 0.3 mm 5 mps 750 mmHg 75%
12:00 +14°C° 0.3 mm 6 mps 750 mmHg 75%
13:00 +14°C° 0.3 mm 6 mps 750 mmHg 75%
14:00 +12°C° 0.8 mm 4 mps 750 mmHg 81%
15:00 +13°C° 0.8 mm 4 mps 749 mmHg 79%
16:00 +14°C° 0.8 mm 4 mps 749 mmHg 76%
17:00 +13°C° 0.7 mm 4 mps 749 mmHg 80%
18:00 +12°C° 0.7 mm 4 mps 749 mmHg 84%
19:00 +11°C° 0.7 mm 3 mps 749 mmHg 88%
20:00 +11°C° 0 mm 3 mps 749 mmHg 89%
21:00 +10°C° 0 mm 3 mps 749 mmHg 91%
22:00 +10°C° 0 mm 2 mps 749 mmHg 93%
23:00 +10°C° 0.1 mm 2 mps 749 mmHg 94%

20 May, Thursday

Time Temperature Precipitation Wind Pressure Humidity
00:00 +10°C° 0.1 mm 2 mps 749 mmHg 94%
01:00 +9°C° 0.1 mm 2 mps 749 mmHg 95%
02:00 +9°C° 0.2 mm 2 mps 749 mmHg 95%
03:00 +9°C° 0.2 mm 3 mps 750 mmHg 94%
04:00 +9°C° 0.2 mm 3 mps 750 mmHg 94%
05:00 +9°C° 0 mm 3 mps 750 mmHg 91%
06:00 +9°C° 0 mm 3 mps 750 mmHg 89%
07:00 +10°C° 0 mm 4 mps 751 mmHg 87%
08:00 +11°C° 0 mm 4 mps 751 mmHg 80%
09:00 +12°C° 0 mm 5 mps 751 mmHg 74%
10:00 +13°C° 0 mm 5 mps 751 mmHg 67%
11:00 +13°C° 0.4 mm 5 mps 751 mmHg 68%
12:00 +14°C° 0.4 mm 5 mps 751 mmHg 69%
13:00 +14°C° 0.4 mm 5 mps 751 mmHg 70%
14:00 +14°C° 0.4 mm 5 mps 751 mmHg 70%
15:00 +14°C° 0.4 mm 5 mps 751 mmHg 69%
16:00 +14°C° 0.4 mm 5 mps 751 mmHg 69%
17:00 +13°C° 0.3 mm 4 mps 751 mmHg 74%
18:00 +12°C° 0.3 mm 4 mps 751 mmHg 78%
19:00 +11°C° 0.3 mm 3 mps 752 mmHg 83%
20:00 +10°C° 0 mm 3 mps 752 mmHg 85%
21:00 +9°C° 0 mm 3 mps 752 mmHg 88%
22:00 +8°C° 0 mm 3 mps 752 mmHg 90%
23:00 +7°C° 0 mm 3 mps 753 mmHg 91%

21 May, Friday

Time Temperature Precipitation Wind Pressure Humidity
00:00 +7°C° 0 mm 3 mps 753 mmHg 93%
01:00 +5°C° 0 mm 4 mps 753 mmHg 94%
02:00 +5°C° 0 mm 4 mps 753 mmHg 95%
03:00 +5°C° 0 mm 4 mps 753 mmHg 95%
04:00 +4°C° 0 mm 4 mps 753 mmHg 96%
05:00 +6°C° 0 mm 4 mps 753 mmHg 91%
06:00 +7°C° 0 mm 5 mps 753 mmHg 87%
07:00 +8°C° 0 mm 5 mps 753 mmHg 83%
08:00 +9°C° 0 mm 5 mps 753 mmHg 74%
09:00 +10°C° 0 mm 5 mps 753 mmHg 66%
10:00 +11°C° 0 mm 6 mps 753 mmHg 57%
11:00 +13°C° 0 mm 6 mps 753 mmHg 57%
12:00 +13°C° 0 mm 6 mps 753 mmHg 58%
13:00 +13°C° 0 mm 6 mps 753 mmHg 58%
14:00 +13°C° 0 mm 5 mps 753 mmHg 57%
15:00 +13°C° 0 mm 4 mps 753 mmHg 57%
16:00 +13°C° 0 mm 4 mps 753 mmHg 56%
17:00 +12°C° 0 mm 3 mps 753 mmHg 60%
18:00 +12°C° 0 mm 2 mps 753 mmHg 65%
19:00 +10°C° 0 mm 2 mps 752 mmHg 70%
20:00 +10°C° 0 mm 2 mps 753 mmHg 72%
21:00 +9°C° 0 mm 2 mps 753 mmHg 73%
22:00 +9°C° 0 mm 3 mps 753 mmHg 75%
23:00 +9°C° 0 mm 3 mps 753 mmHg 76%
Show more

We Need Your Consent

Meteoprog and our Service Providers may store and access personal data such as cookies, device identifiers or other similar technologies on your device and process such data to personalise content and ads, as well as provide social media features and to analyse the traffic.

  • Store and/or access information on your device

    Cookies, device identifiers or other information can be stored or accessed on your device for the purposes indicated above.

  • Personalised ads and content, ad and content measurement, audience insights, and products development

    Ads and content can be personalised based on a profile. More data can be added to better personalise ads and content. Ad and content performance can be measured. Insights about the audience who saw the ads and content can be derived. Such data can be used to develop or improve user’s experience, systems and software.

By clicking ‘I Agree’ you will allow the use of indicated cookies, device identifiers, web beacons or other similar technologies. Your settings can be changed in the browser on your device.

For certain purposes, legitimate interests may be relied on, rather than consent. You can read more about this in our Privacy and Cookie Policy.